Wind_Speed
19 20 21 22 23 25 26 27 28 29 31 32 34 36 38 40 42 44 45 47 48 49 50 51 53 55 58 61 63 65 67 70 72 74 76 78 81 82 82 83 82 81 81
22 23 24 25 26 28 29 30 31 32 34 35 37 38 40 42 44 46 47 49 50 51 52 54 56 58 60 63 65 67 70 72 75 77 79 80 79 80 79 78 78 77 77
24 25 26 28 29 30 32 33 34 35 37 38 39 41 43 45 47 48 50 51 52 53 54 56 58 60 62 65 67 70 72 74 77 80 82 83 82 81 76 73 72 72 72
26 27 29 30 32 33 34 36 37 38 40 41 42 44 46 47 49 51 52 53 54 56 57 58 60 62 65 67 69 72 74 76 78 80 82 83 84 84 79 71 68 68 67
29 30 31 33 34 36 37 39 40 41 43 44 46 47 49 50 52 53 55 55 56 58 59 60 62 64 67 69 71 73 75 77 78 80 81 81 81 82 80 74 67 63 63
31 32 34 36 38 39 41 42 44 45 46 48 49 50 52 53 54 55 57 57 58 59 61 62 64 66 68 70 72 74 76 78 79 80 80 80 79 78 77 74 69 63 58
34 35 37 39 41 43 44 46 47 48 50 51 51 53 54 55 56 57 58 59 60 61 62 64 66 68 69 71 73 75 76 77 78 79 79 78 77 76 74 73 69 63 56
37 39 41 43 45 46 48 49 50 51 53 53 54 55 56 57 58 59 60 60 62 63 64 66 67 68 70 72 73 75 76 77 77 77 77 75 74 74 72 71 69 64 56
42 44 45 46 48 49 51 52 53 54 55 56 57 57 58 59 59 60 61 63 63 64 66 68 68 69 71 73 74 75 76 76 76 76 75 73 72 71 68 67 67 64 59
45 47 48 50 51 52 53 54 55 56 57 57 58 58 59 60 61 62 63 64 65 66 68 69 69 70 72 73 74 74 75 75 75 75 73 71 70 68 66 64 63 61 59
49 51 52 53 54 54 55 55 56 57 58 59 60 60 61 62 63 63 64 65 66 67 68 69 70 71 72 72 73 73 74 73 73 73 71 69 68 66 63 62 61 58 57
52 53 54 54 55 55 56 56 57 58 59 60 61 61 61 62 63 64 65 66 67 68 69 69 69 70 71 71 72 72 72 72 71 70 69 67 65 64 61 60 59 56 54
53 54 55 55 56 56 56 57 58 59 60 61 61 62 63 64 65 66 66 67 67 68 69 68 69 69 70 70 70 71 70 70 70 68 67 65 63 62 59 58 57 54 52
54 55 55 56 56 57 58 58 58 59 60 62 63 63 64 66 66 66 66 67 67 68 68 67 68 68 69 69 69 69 69 68 68 66 65 63 62 60 58 56 55 52 49
56 57 57 57 57 58 58 59 59 60 62 63 63 65 66 66 66 66 67 67 68 67 66 65 66 67 68 68 67 67 67 66 65 64 62 61 60 58 56 55 54 51 48
58 58 58 58 59 59 60 60 60 61 63 63 64 65 65 65 66 66 67 67 66 65 64 64 65 65 66 66 66 65 64 64 63 61 59 58 57 56 54 53 52 50 48
60 60 59 60 61 61 61 61 62 63 64 64 64 65 65 65 65 65 64 63 63 63 62 63 64 64 64 65 64 63 62 62 61 59 57 56 55 54 52 51 50 48 46
61 60 60 61 61 61 62 62 62 63 63 63 64 64 63 63 62 62 61 61 60 59 60 60 60 61 62 61 61 60 60 60 59 57 56 54 53 52 50 49 48 47 45
62 62 62 61 60 60 60 60 61 61 61 61 61 60 60 60 59 59 58 58 58 57 57 57 58 58 59 59 58 58 58 57 56 55 54 53 51 50 49 48 47 45 42
61 61 60 59 58 58 59 59 59 58 58 58 58 57 57 57 57 57 56 56 55 55 55 55 55 55 56 56 56 56 55 54 53 52 52 51 50 48 47 47 46 43 40
57 57 58 58 58 58 58 57 56 56 56 55 55 55 56 56 56 55 54 54 53 54 53 53 52 53 53 54 53 53 53 52 51 49 49 48 48 47 46 45 45 43 39
54 55 54 54 54 55 55 55 55 55 54 54 53 53 53 53 53 53 52 52 52 53 51 50 50 51 51 51 51 51 52 51 49 47 47 46 46 45 44 44 44 41 38
50 50 50 50 51 53 54 54 53 52 51 51 50 51 51 50 50 50 50 50 50 49 48 47 47 48 49 49 49 49 50 50 48 46 45 45 44 43 43 42 42 40 36
49 49 49 50 51 52 51 51 51 51 51 52 52 52 52 52 52 51 50 50 50 47 45 45 45 46 47 48 47 47 48 48 46 45 44 44 43 42 41 41 41 40 36
48 49 50 50 50 49 50 51 53 53 53 53 53 53 53 53 52 52 51 50 49 47 45 44 44 45 46 46 45 45 46 46 44 43 42 42 42 41 40 40 39 39 36
49 50 50 50 50 51 52 53 54 54 54 55 55 55 54 54 53 52 51 49 48 45 43 43 43 43 43 43 43 43 44 44 43 41 40 40 40 39 38 38 38 37 35
Wind_Direction
295 297 299 301 302 304 306 308 310 312 314 315 317 318 319 320 321 322 322 322 320 319 319 318 318 318 319 320 321 321 321 321 321 320 320 320 319 318 316 314 312 310 308
293 295 297 298 300 302 304 306 308 310 312 313 315 316 317 318 319 320 320 321 320 320 320 319 319 320 321 321 322 323 323 323 322 322 322 322 321 320 319 317 314 312 311
292 294 296 297 299 301 303 305 307 308 309 311 313 314 315 316 317 318 319 319 320 319 319 320 320 321 322 323 323 324 324 324 324 324 323 323 323 323 323 320 317 314 313
292 293 295 296 298 300 302 303 305 307 308 309 311 312 313 314 315 316 317 318 318 319 319 320 321 322 323 324 324 324 325 325 325 324 324 324 324 324 325 324 321 318 316
290 292 294 295 297 299 300 302 303 305 306 308 309 310 312 313 314 315 316 316 317 318 319 319 321 322 324 324 325 325 325 325 325 325 325 325 324 324 325 327 325 322 319
290 291 292 294 295 297 299 300 302 303 304 306 307 309 310 311 313 313 315 316 316 317 318 319 320 322 324 325 325 325 325 326 326 326 326 325 325 325 325 326 327 327 324
289 290 290 292 294 296 297 298 300 301 302 304 306 307 309 310 311 312 314 314 315 316 317 319 320 322 323 324 325 325 325 325 326 326 326 326 326 326 326 326 328 329 328
288 288 290 291 293 294 296 297 299 300 301 303 304 306 307 309 310 311 313 313 314 315 316 318 319 321 323 324 325 325 325 325 326 326 327 327 327 327 326 327 328 329 330
288 289 290 292 293 294 296 297 298 299 300 301 303 304 306 307 309 310 311 312 312 314 315 317 319 321 322 323 324 324 325 325 326 327 327 327 327 328 327 328 329 329 331
288 289 291 292 294 295 296 296 297 298 299 301 302 304 305 306 307 309 310 311 312 313 314 317 318 320 321 322 323 324 324 325 326 327 328 328 328 329 328 328 329 329 330
288 290 292 294 295 296 296 296 297 298 299 300 302 303 304 305 306 308 309 310 311 312 314 316 318 319 320 321 322 323 324 325 325 327 328 328 329 330 329 329 329 329 329
291 292 294 295 296 296 296 296 296 297 298 300 301 303 304 304 305 307 308 309 310 312 313 316 318 318 319 320 321 322 324 324 326 327 328 329 330 330 330 330 330 329 329
294 295 295 296 297 297 296 297 297 298 298 300 301 302 302 303 304 306 307 308 310 311 313 315 317 317 318 319 320 322 323 324 326 327 329 330 330 331 331 331 331 330 329
296 297 297 298 298 298 298 298 298 298 298 299 300 300 301 302 304 305 306 308 310 311 312 313 315 316 317 318 319 321 322 324 326 327 329 330 331 332 332 332 331 331 330
299 300 300 300 300 299 299 298 298 298 298 299 299 300 301 302 304 305 306 308 310 311 312 314 315 316 316 317 318 320 322 324 326 327 329 330 331 332 333 333 333 333 332
300 300 301 301 300 300 300 299 298 298 298 298 299 301 302 304 305 306 307 309 311 312 313 314 315 315 315 316 318 319 321 324 325 327 329 330 331 332 333 334 334 334 333
301 301 302 302 302 301 300 299 299 299 300 300 301 301 302 304 305 307 308 309 310 311 313 313 314 314 315 317 318 319 321 324 326 328 329 331 331 333 334 335 335 333 332
302 302 302 301 301 301 300 301 301 302 302 301 301 302 303 304 305 306 307 309 310 311 313 313 314 315 316 317 318 319 321 324 326 328 329 331 332 333 334 335 335 334 333
302 301 301 301 301 301 301 302 303 304 304 304 304 304 305 306 306 307 308 309 309 310 311 313 314 315 316 316 318 319 321 324 325 327 329 331 333 333 334 336 336 335 333
300 301 301 302 303 303 303 304 304 305 305 306 306 306 306 307 307 307 308 309 310 311 311 313 314 315 316 316 318 319 322 324 325 327 329 331 333 333 335 336 337 336 334
302 302 302 303 303 303 304 305 305 305 306 307 307 307 307 307 307 308 309 310 310 311 312 313 314 315 316 317 318 320 322 324 325 327 329 331 333 334 335 336 337 336 335
303 303 304 305 305 305 305 306 306 306 307 308 308 309 310 310 310 310 310 311 311 312 312 312 313 314 316 317 318 320 322 324 326 327 329 331 333 334 335 336 338 337 336
305 306 306 306 306 306 306 307 307 308 309 310 310 310 311 312 312 312 312 312 313 313 312 312 313 314 316 317 318 320 322 324 326 327 329 332 333 334 335 337 338 339 337
307 308 308 307 307 307 308 308 309 309 309 309 309 310 310 311 311 312 313 313 313 312 311 311 312 314 316 317 318 320 322 323 325 328 330 332 333 334 335 337 338 339 338
308 308 309 309 308 309 309 309 309 309 309 308 308 308 308 309 310 310 311 312 313 312 311 310 312 314 315 317 318 320 321 323 326 328 330 331 333 334 336 337 338 340 339
308 309 309 309 309 308 309 309 309 309 309 309 308 307 306 307 308 308 309 310 311 311 310 309 309 312 313 315 317 320 321 323 326 328 329 331 333 334 335 337 338 339 339
Height
5825 5823 5820 5818 5815 5812 5809 5805 5801 5797 5793 5788 5783 5778 5773 5767 5761 5754 5748 5741 5734 5727 5720 5712 5704 5696 5688 5679 5670 5660 5649 5638 5627 5617 5606 5592 5574 5555 5536 5517 5499 5481 5465
5821 5818 5816 5813 5810 5807 5803 5799 5795 5790 5785 5781 5776 5771 5765 5759 5753 5746 5739 5732 5725 5717 5709 5701 5693 5684 5675 5665 5655 5645 5634 5621 5608 5597 5585 5574 5562 5542 5522 5500 5479 5461 5444
5815 5813 5810 5807 5804 5800 5797 5792 5788 5783 5778 5773 5768 5763 5757 5750 5744 5737 5730 5722 5715 5707 5698 5690 5681 5671 5662 5651 5640 5629 5618 5605 5590 5575 5561 5547 5535 5523 5510 5487 5465 5444 5427
5809 5807 5804 5801 5797 5793 5789 5785 5780 5775 5770 5764 5759 5753 5748 5741 5735 5728 5720 5712 5704 5696 5687 5678 5669 5659 5648 5637 5626 5614 5601 5588 5574 5558 5541 5524 5507 5493 5485 5473 5452 5431 5412
5803 5800 5797 5794 5790 5786 5782 5777 5772 5767 5761 5756 5750 5744 5738 5731 5725 5717 5709 5701 5693 5685 5676 5666 5656 5646 5635 5624 5611 5599 5585 5571 5557 5541 5525 5508 5490 5471 5456 5448 5437 5420 5399
5796 5793 5789 5786 5781 5777 5773 5768 5763 5758 5752 5746 5740 5734 5728 5721 5714 5706 5698 5690 5682 5673 5664 5654 5644 5633 5622 5610 5597 5584 5570 5556 5541 5525 5508 5491 5475 5458 5440 5426 5416 5404 5389
5788 5784 5781 5777 5773 5768 5763 5758 5753 5748 5742 5736 5730 5724 5717 5710 5702 5694 5687 5678 5670 5661 5652 5642 5632 5620 5609 5597 5584 5570 5556 5541 5526 5510 5493 5476 5459 5442 5425 5410 5398 5388 5376
5778 5775 5771 5767 5763 5758 5753 5748 5742 5737 5731 5725 5719 5712 5705 5698 5691 5683 5675 5666 5657 5648 5639 5629 5619 5607 5596 5583 5570 5557 5542 5527 5512 5496 5480 5463 5446 5429 5412 5396 5382 5372 5365
5768 5764 5761 5757 5752 5747 5742 5737 5731 5726 5720 5713 5707 5701 5694 5686 5678 5670 5662 5654 5645 5636 5626 5616 5606 5594 5582 5570 5557 5544 5529 5514 5499 5484 5467 5451 5434 5418 5402 5386 5370 5357 5348
5758 5753 5750 5745 5741 5736 5730 5725 5719 5714 5708 5701 5695 5689 5681 5674 5666 5658 5650 5641 5632 5623 5613 5603 5592 5581 5569 5557 5545 5531 5517 5502 5487 5471 5456 5440 5424 5408 5392 5378 5363 5348 5336
5747 5743 5739 5734 5729 5723 5718 5713 5707 5701 5695 5689 5682 5676 5669 5661 5653 5645 5637 5628 5619 5610 5600 5590 5579 5568 5557 5544 5532 5519 5505 5490 5475 5460 5445 5429 5413 5399 5384 5370 5356 5342 5329
5736 5732 5727 5722 5717 5711 5706 5700 5694 5688 5682 5676 5669 5663 5655 5647 5640 5632 5623 5615 5606 5596 5587 5577 5566 5555 5544 5532 5520 5507 5493 5479 5465 5449 5434 5419 5404 5390 5375 5362 5348 5335 5323
5725 5720 5715 5710 5705 5699 5693 5687 5681 5675 5669 5662 5656 5649 5641 5633 5626 5618 5610 5601 5592 5583 5574 5564 5554 5543 5532 5520 5507 5495 5482 5468 5454 5439 5424 5410 5395 5382 5368 5354 5341 5329 5317
5712 5708 5703 5698 5692 5686 5680 5674 5668 5662 5655 5649 5642 5635 5627 5620 5612 5604 5596 5588 5579 5570 5561 5551 5541 5531 5519 5508 5496 5483 5470 5457 5443 5429 5415 5401 5387 5374 5361 5348 5335 5323 5312
5700 5695 5690 5684 5679 5673 5667 5661 5654 5648 5641 5634 5627 5620 5613 5605 5598 5590 5582 5574 5565 5556 5547 5538 5528 5518 5507 5496 5484 5472 5460 5446 5433 5419 5406 5392 5378 5365 5352 5340 5328 5316 5305
5686 5681 5676 5671 5665 5659 5653 5646 5640 5633 5626 5619 5613 5605 5598 5591 5584 5576 5568 5560 5551 5543 5534 5525 5516 5505 5495 5484 5473 5462 5450 5437 5424 5411 5398 5384 5371 5358 5346 5333 5321 5309 5299
5673 5668 5662 5657 5651 5644 5638 5631 5625 5618 5611 5605 5598 5590 5583 5577 5569 5562 5554 5546 5538 5530 5521 5512 5503 5493 5483 5472 5462 5451 5440 5427 5415 5402 5390 5378 5365 5352 5340 5329 5317 5305 5294
5659 5653 5648 5642 5637 5630 5623 5616 5610 5603 5597 5590 5582 5575 5569 5562 5555 5548 5540 5533 5525 5517 5509 5500 5491 5482 5472 5461 5451 5440 5429 5418 5406 5394 5382 5370 5358 5346 5335 5324 5313 5301 5291
5644 5639 5633 5627 5622 5615 5608 5602 5596 5589 5582 5575 5568 5561 5554 5548 5541 5534 5527 5519 5512 5504 5496 5488 5479 5470 5461 5451 5441 5431 5420 5409 5397 5385 5374 5363 5352 5340 5329 5319 5308 5298 5287
5631 5625 5619 5613 5607 5600 5594 5588 5581 5575 5568 5561 5554 5548 5541 5534 5528 5521 5514 5507 5499 5492 5484 5476 5467 5459 5450 5440 5431 5421 5411 5401 5389 5378 5367 5356 5345 5334 5323 5312 5303 5293 5284
5617 5611 5605 5599 5593 5586 5580 5574 5567 5561 5554 5548 5541 5534 5527 5521 5514 5508 5501 5494 5487 5480 5472 5464 5456 5448 5439 5430 5421 5412 5402 5392 5382 5371 5360 5349 5338 5328 5317 5307 5297 5287 5279
5603 5597 5591 5586 5579 5572 5566 5560 5554 5548 5542 5535 5528 5522 5515 5508 5501 5495 5488 5481 5474 5467 5460 5452 5445 5437 5429 5420 5411 5403 5394 5384 5374 5364 5354 5343 5333 5323 5313 5303 5293 5283 5274
5590 5584 5578 5573 5567 5559 5553 5547 5541 5535 5529 5523 5516 5509 5503 5496 5489 5482 5476 5469 5462 5455 5448 5441 5434 5427 5419 5411 5403 5394 5385 5376 5367 5357 5347 5337 5328 5318 5308 5298 5289 5279 5271
5578 5572 5566 5561 5555 5547 5540 5533 5528 5522 5516 5510 5503 5497 5490 5484 5477 5471 5464 5457 5450 5443 5437 5430 5424 5417 5410 5402 5394 5386 5377 5368 5359 5350 5340 5331 5322 5313 5303 5294 5285 5275 5267
5566 5560 5554 5548 5542 5535 5529 5522 5515 5509 5503 5497 5490 5483 5477 5471 5464 5458 5452 5445 5439 5432 5426 5420 5414 5407 5400 5393 5386 5378 5370 5361 5352 5343 5334 5325 5316 5307 5298 5289 5280 5272 5263
5554 5548 5542 5536 5530 5523 5517 5509 5503 5496 5489 5483 5476 5470 5463 5457 5451 5445 5439 5433 5427 5421 5415 5409 5404 5397 5391 5384 5377 5370 5362 5354 5345 5337 5328 5320 5312 5303 5295 5286 5277 5268 5260